Weather in Timişoara

Romania     45°45′02″N   21°14′30″E
temp.,
°C
wind,
m/s
gust,
m/s
humid.,
%
clouds,
%
prec.,
mm/h
press.,
hPa
HPBL,
m
19 april, mon
mon1900:00+5s2596100 0.1 1018244
03:00+5ssw2595100 0.1 1018204
06:00+4s2294100 0.0 101736
09:00+6se1188100 0.0 1017140
12:00+9s1271100 0.1 1016581
15:00+12nnw1157100 0.1 10151536
18:00+10nw236974 0.0 1014345
21:00+8nnw337999 0.0 101448
20 april, tue
tue2000:00+7nw358579 0.0 1014114
03:00+6nw358580 0.0 1014149
06:00+4w229225 0.0 101453
09:00+7wsw228448 0.0 1015263
12:00+11wsw3368100 0.3 10151129
15:00+12wsw346197 0.8 10141213
18:00+12w346673 0.6 1014890
21:00+8wsw338237 0.6 101536
21 april, wed
wed2100:00+7wsw338771 0.0 101655
03:00+5wsw349335 0.0 101770
06:00+5sw239687 0.1 101754
09:00+8sw348658 0.1 1018285
12:00+13sw446766 0.1 10181180
15:00+15wsw445742 0.3 10171571
18:00+15w345595 0.1 1016880
21:00+10s226883 0.1 101713
22 april, thu
thu2200:00+9ssw33747 0.0 101824
03:00+8s2390100 0.5 101847
06:00+7s349555 0.8 101878
09:00+10ssw45842 0.9 1019247
12:00+15sw47600 0.0 10191151
15:00+18sw574723 0.0 10182394
18:00+18wsw475544 0.0 10172113
21:00+13sw22685 0.1 101711
23 april, fri
fri2300:00+10n51092100 0.2 1019299
03:00+9nnw489577 3.1 1020305
06:00+5nw379285 0.0 1022164
09:00+8nnw487233 0.0 1023442
12:00+11nw56525 0.0 10241389
15:00+13nw45445 0.0 10231833
18:00+13nnw45465 0.0 10231903
21:00+8nnw33630 0.0 102424